Temperature
22 23 23 23 23 23 23 22 22 22 22 22 22 22 22 21 20 20 20 19 19 18 17 17 16 16 16 16 16 16 15 15 15 15 15 15 14 14 14 14 14 14 14 14
23 22 23 23 22 22 22 22 22 22 22 22 22 22 22 21 21 20 20 19 19 18 17 17 16 16 16 16 16 15 15 15 15 15 15 14 14 14 14 14 14 14 14 14
23 23 22 22 22 22 22 22 22 22 21 21 22 22 22 22 20 20 19 19 19 18 18 17 16 16 16 16 16 15 15 15 15 15 14 14 14 14 14 14 14 14 14 14
22 22 22 22 22 22 22 22 22 21 21 22 22 22 23 22 21 20 20 19 19 18 18 17 16 16 16 16 15 15 15 15 15 14 14 14 14 14 14 14 13 13 13 13
22 22 22 22 22 22 22 21 21 21 22 22 22 22 23 22 21 21 20 19 19 18 18 17 16 16 16 16 15 15 15 15 15 14 14 14 14 14 14 13 13 13 13 13
22 22 22 22 22 21 21 21 21 21 22 21 22 22 22 22 22 21 20 19 18 18 17 17 16 16 16 15 15 15 15 15 15 14 14 14 14 14 13 13 13 13 13 13
22 22 21 21 21 21 21 22 21 21 21 21 21 21 22 22 21 20 20 19 18 17 17 17 16 16 15 15 15 15 15 14 14 14 14 14 14 14 14 13 13 13 13 13
21 21 22 22 22 22 22 22 21 21 21 22 21 21 22 21 20 19 19 18 17 17 17 16 16 15 15 15 15 15 15 14 14 14 14 14 14 13 13 13 13 13 13 13
21 21 21 21 21 22 21 22 22 22 21 21 22 22 21 20 20 19 18 18 17 17 16 16 15 15 15 15 15 15 14 14 14 14 14 14 13 13 13 13 13 13 12 12
21 21 21 21 21 20 21 22 21 21 20 20 21 21 21 20 20 19 19 18 17 16 16 15 15 14 14 14 14 14 14 14 14 13 13 13 13 13 13 13 12 12 12 12
21 21 21 21 21 21 21 21 21 21 21 20 20 21 21 20 20 19 19 18 17 16 15 15 14 14 14 14 14 14 13 13 13 13 13 13 13 13 13 12 12 12 12 12
20 21 21 21 20 20 21 21 21 20 21 20 20 21 20 20 19 18 18 17 16 16 15 14 14 13 13 13 13 13 13 13 13 13 12 12 13 12 12 12 12 12 11 11
19 20 20 20 20 20 20 20 20 20 20 20 20 20 19 19 19 18 17 16 16 15 14 14 13 13 13 13 13 13 13 12 12 12 12 12 12 12 12 12 12 11 11 11
18 20 20 20 20 20 19 19 19 19 20 20 20 20 19 19 18 17 16 16 15 15 14 14 13 13 12 12 12 12 12 12 12 12 12 12 12 11 11 11 11 11 10 10
19 20 20 19 19 19 19 19 18 19 19 20 20 19 19 19 18 17 16 15 14 14 14 13 13 13 12 12 12 12 12 12 11 11 11 11 11 11 11 11 10 10 10 10
18 19 19 18 18 18 18 18 18 18 18 19 18 18 19 17 17 16 15 14 14 13 13 13 13 12 12 12 11 11 11 11 11 11 11 11 10 10 10 10 10 10 9 9
18 18 18 19 18 18 18 18 18 18 17 18 18 18 17 17 16 15 15 14 13 13 12 12 12 12 12 11 11 11 11 11 10 10 10 10 10 10 10 9 9 9 9 9
18 18 18 18 18 17 18 18 17 17 17 17 17 16 16 16 15 14 14 13 13 12 12 11 11 11 11 11 11 11 11 10 10 10 10 9 9 9 9 9 9 8 8 8
17 17 17 17 17 18 17 16 16 16 16 16 16 15 15 14 14 14 13 12 12 12 11 11 11 11 10 10 10 10 10 10 10 10 9 9 9 9 9 9 8 8 8 8
15 17 17 17 16 17 17 16 15 16 16 15 15 14 14 14 16 15 12 11 11 11 10 10 10 10 10 10 10 10 10 10 10 9 9 9 9 8 8 8 8 8 7 7
15 16 16 16 16 17 16 14 15 16 16 14 14 13 13 14 14 13 12 11 11 10 10 10 10 10 10 10 10 9 9 9 9 9 9 8 8 8 8 7 7 7 7 7
16 16 16 16 16 16 14 14 15 15 14 13 13 12 12 12 12 11 11 10 10 10 9 9 9 9 9 9 9 9 9 9 9 8 8 8 8 8 7 7 7 7 7 6
15 15 16 16 15 14 13 13 13 12 13 12 12 12 11 11 11 10 10 10 10 9 9 9 9 9 9 9 9 9 9 9 8 8 8 8 8 7 7 7 7 6 6 6
14 13 14 14 14 13 12 12 11 11 11 11 11 11 10 10 10 10 10 9 9 9 9 9 9 9 9 9 9 8 8 8 8 8 8 8 7 7 7 7 6 6 6 6
14 13 14 14 14 12 11 11 11 11 11 10 10 10 10 10 9 9 9 9 9 9 9 9 8 8 8 8 8 8 8 8 8 7 7 7 7 7 7 6 6 6 6 6
13 13 14 14 13 13 12 11 10 10 10 10 10 9 9 9 9 9 9 8 8 8 8 8 8 8 8 8 8 8 7 7 7 7 7 7 6 6 6 6 6 6 6 6
Wind_Speed
5 6 6 5 6 5 4 5 5 3 2 5 7 7 7 7 9 9 9 9 9 9 8 7 7 7 6 6 5 5 4 4 3 3 2 2 2 2 2 2 2 2 2 2
6 7 6 4 4 5 6 7 5 3 2 4 6 7 7 8 9 9 9 10 10 9 9 8 8 8 7 7 6 5 4 4 3 2 2 2 2 1 1 1 1 2 2 2
8 3 5 6 6 7 7 8 6 4 3 5 6 7 7 7 7 7 8 9 10 11 11 10 9 9 8 7 6 5 4 4 4 3 2 2 2 2 2 1 1 1 1 1
6 5 6 7 7 7 7 5 5 5 6 4 5 5 5 6 7 7 8 9 10 11 11 10 10 9 8 7 6 5 5 4 4 4 3 3 2 2 1 1 1 1 0 0
5 6 7 8 6 7 4 3 5 6 7 7 6 6 3 5 6 7 8 9 10 10 11 11 10 9 8 7 6 6 5 5 4 4 4 3 2 2 1 1 1 1 0 0
5 4 5 5 4 5 5 5 5 6 6 7 6 7 4 3 5 5 7 8 9 9 10 10 9 8 7 7 6 6 6 5 5 5 4 4 3 2 2 2 1 1 0 0
6 6 5 5 5 6 7 6 4 5 5 4 3 6 3 1 1 3 5 7 8 9 8 8 9 9 8 7 7 6 6 6 5 5 4 4 3 3 3 2 2 1 1 0
6 6 6 6 7 6 9 9 6 4 5 4 5 6 2 1 0 2 3 5 7 8 7 7 8 8 7 7 7 7 7 6 6 5 5 4 3 2 2 2 2 2 1 1
5 4 3 4 4 6 7 8 6 6 6 6 5 4 3 1 1 1 3 5 7 7 7 6 6 6 7 7 7 7 7 6 5 5 5 3 3 3 2 2 2 2 1 1
4 5 4 4 5 3 5 5 5 6 5 6 5 6 4 2 2 2 3 5 6 6 6 6 6 5 5 5 5 5 5 5 5 4 4 3 3 3 3 2 2 2 1 1
5 6 4 5 6 7 6 7 6 6 7 6 6 3 0 1 1 2 3 4 5 6 6 6 5 5 5 4 4 4 5 4 4 4 4 3 3 2 2 2 2 2 1 1
4 5 6 6 3 3 7 7 8 8 7 7 7 3 3 1 0 1 2 3 4 5 5 6 6 5 5 4 4 3 3 3 3 3 3 3 3 3 3 3 2 2 2 1
4 5 6 5 5 5 5 6 8 8 8 9 9 4 4 1 1 1 1 2 3 5 5 5 5 5 4 4 3 3 3 2 2 2 3 3 3 3 3 3 3 2 2 1
3 6 7 7 4 4 6 6 8 9 9 10 11 8 3 1 1 1 1 2 3 4 5 5 4 4 4 3 3 3 3 3 2 3 3 3 3 3 3 3 2 2 2 2
3 6 6 7 4 5 7 7 8 11 11 11 10 8 5 3 3 2 1 2 3 3 5 5 4 4 3 3 3 2 2 2 3 3 3 3 2 2 2 2 2 2 2 2
3 5 6 6 5 6 7 7 8 9 9 10 10 8 4 2 1 2 2 2 3 3 3 4 5 5 4 4 3 3 3 3 3 4 3 2 2 2 2 2 2 2 2 2
4 5 6 6 4 6 8 7 7 6 5 7 9 6 3 3 2 3 3 3 3 3 3 4 4 5 5 5 4 4 4 3 4 3 3 2 3 2 2 2 2 2 2 2
5 5 4 5 5 8 1 2 2 4 4 4 4 3 3 4 3 2 2 2 3 3 3 4 4 4 4 4 4 4 4 4 3 3 3 3 3 3 2 2 2 2 2 2
5 5 4 5 7 7 3 1 2 5 4 3 4 4 4 4 3 2 0 2 3 3 3 3 3 3 3 4 3 4 4 4 4 4 4 3 4 3 3 3 2 2 2 2
3 5 5 5 6 6 1 1 1 4 4 0 2 3 3 3 4 3 2 2 3 2 1 1 1 2 3 3 3 4 4 4 4 4 4 3 4 4 3 3 3 3 3 3
3 4 7 8 7 5 2 1 2 4 2 2 2 2 2 3 4 3 2 2 2 1 1 0 0 1 1 2 3 4 4 4 3 3 3 3 3 4 3 3 3 3 3 3
5 5 6 6 7 5 3 2 2 3 4 2 2 2 3 4 3 2 1 1 1 1 1 0 0 0 1 2 3 4 3 3 2 3 3 3 3 3 3 3 3 3 3 3
5 4 4 5 3 2 2 1 2 4 3 3 3 3 3 3 3 3 2 1 1 1 1 1 1 1 1 1 2 3 2 2 3 3 3 3 3 2 3 3 4 3 3 3
4 2 4 5 5 3 3 3 4 4 4 4 3 3 3 3 3 3 2 2 1 1 1 1 1 1 1 1 2 2 2 2 3 3 3 2 2 2 3 3 3 3 3 3
4 4 5 7 5 3 5 5 4 4 4 3 3 3 3 2 2 2 2 1 1 1 1 1 1 1 1 1 1 1 2 2 3 3 2 2 2 2 2 2 2 3 3 3
6 6 6 6 4 5 5 4 5 4 4 3 3 3 2 2 2 1 1 1 1 1 1 1 2 1 1 1 1 1 1 2 3 2 2 2 1 1 2 2 1 2 1 2
Wind_Direction
192 209 216 219 225 246 243 236 239 243 225 227 233 234 221 201 207 208 201 197 193 187 177 172 171 170 167 163 160 151 150 142 140 141 144 134 128 109 103 90 85 78 62 41
200 219 223 209 203 217 231 237 240 231 215 241 249 249 229 210 212 212 207 200 194 186 181 176 175 175 174 169 165 163 162 154 153 151 151 155 148 141 114 107 91 72 61 52
219 218 196 199 210 224 234 241 240 240 240 234 254 241 219 207 207 208 212 205 198 193 191 183 181 180 179 178 172 171 171 164 164 167 164 155 146 153 143 143 126 76 58 52
224 207 200 213 225 233 236 233 231 232 245 248 237 263 221 201 199 205 206 203 201 196 196 189 185 184 185 183 178 178 176 173 172 177 183 182 188 184 181 175 147 136 81 50
214 207 215 226 230 230 236 197 215 235 253 259 236 252 229 191 215 215 209 203 201 197 196 192 190 187 185 182 180 180 176 174 176 184 185 203 201 191 179 175 168 179 153 242
228 216 227 229 219 210 183 186 200 223 243 250 242 246 249 210 229 220 205 201 200 197 195 195 189 184 181 176 173 177 179 177 178 184 186 197 194 191 179 177 173 188 175 261
214 203 195 201 193 189 209 223 229 225 226 243 207 241 248 338 257 236 213 200 196 194 192 190 188 185 181 179 176 180 181 181 182 186 190 194 193 196 190 184 191 205 206 206
219 211 192 204 220 216 215 230 247 260 258 255 216 234 206 72 327 231 214 194 188 187 187 188 188 183 179 179 177 180 183 184 186 191 194 193 188 196 193 195 196 200 215 221
226 214 173 202 221 226 216 228 252 270 274 266 233 217 205 182 166 177 181 176 181 183 181 179 175 174 174 175 175 177 180 182 185 190 188 186 187 189 191 200 203 207 222 230
246 236 199 182 190 207 241 220 220 237 254 256 249 240 232 211 227 183 180 179 177 176 174 171 167 163 163 161 165 171 174 179 183 183 182 179 183 185 193 196 200 204 213 222
243 233 200 196 216 216 200 211 227 237 250 263 265 242 115 220 209 208 195 181 174 171 166 161 154 150 145 146 151 157 168 174 180 186 188 187 186 189 193 201 202 216 215 210
226 241 235 222 207 254 230 231 229 241 243 247 265 263 90 116 104 190 188 173 170 166 163 158 153 151 149 146 143 152 161 170 176 188 195 195 196 197 200 205 206 210 218 217
205 233 237 210 194 196 221 228 235 248 254 249 251 243 110 109 101 144 177 164 170 166 164 162 159 159 158 154 152 153 169 184 184 187 195 199 209 213 212 213 210 207 209 215
238 237 246 256 278 228 233 231 230 237 247 251 251 260 243 261 294 288 219 188 182 178 175 174 171 171 170 172 169 172 174 186 195 192 197 206 217 226 226 218 205 208 207 207
244 246 251 269 270 245 248 249 235 239 249 256 263 265 274 288 280 286 258 192 184 189 187 187 190 190 188 190 187 186 186 192 197 196 206 218 222 218 210 201 199 195 207 216
240 250 251 251 241 241 250 252 241 239 248 251 256 263 292 303 279 277 263 217 206 206 210 206 206 207 208 207 206 204 203 208 207 203 207 209 198 184 194 204 198 190 205 219
221 238 248 250 247 248 247 248 241 232 236 242 249 260 285 286 273 275 271 239 225 226 230 230 224 220 216 217 214 212 213 212 214 208 200 192 190 191 196 195 186 189 203 214
226 230 245 259 250 245 251 63 226 221 235 250 262 283 281 281 278 289 289 263 253 249 242 241 238 233 230 222 215 214 215 211 215 211 201 190 190 199 201 203 202 203 206 218
228 223 233 243 253 261 235 225 224 232 245 264 258 277 298 300 260 250 345 306 280 261 254 248 246 236 227 221 217 214 216 211 213 215 213 205 202 205 205 205 208 213 211 218
196 223 233 234 250 255 286 65 291 240 236 4 291 284 297 291 263 282 337 315 309 303 285 262 228 234 224 217 208 207 210 211 217 217 220 216 211 212 217 213 204 208 209 215
191 211 228 239 247 254 13 56 196 231 329 14 300 286 272 268 292 313 323 322 333 330 305 292 254 247 226 205 195 200 204 212 213 212 217 210 210 212 217 217 205 199 200 213
223 223 224 231 240 245 83 143 210 320 357 333 304 288 277 291 318 313 303 311 336 325 300 274 204 162 197 197 198 202 205 208 203 201 203 204 207 213 211 205 202 201 194 207
231 246 251 241 251 25 135 199 312 327 317 320 313 310 298 298 311 304 277 262 251 273 257 245 182 150 159 186 207 205 207 208 202 197 200 204 203 209 205 203 198 201 202 211
215 231 239 247 248 269 260 265 291 306 308 313 305 298 278 284 292 290 271 256 260 266 241 226 200 192 182 191 209 219 213 207 205 201 202 206 203 205 208 208 209 208 211 219
241 215 237 249 256 267 257 264 281 295 299 305 303 289 272 274 276 285 280 268 265 264 252 223 207 219 232 199 199 214 211 200 194 195 197 204 202 195 196 201 223 230 236 250
227 229 243 259 257 257 269 276 277 275 275 277 281 285 274 272 267 272 269 275 260 245 225 235 237 232 226 202 197 201 198 200 192 189 190 196 197 199 189 186 181 39 343 347
Height
1505 1504 1504 1504 1504 1505 1505 1507 1509 1509 1509 1511 1510 1509 1510 1514 1516 1517 1519 1521 1523 1525 1527 1528 1530 1531 1533 1534 1535 1536 1536 1537 1537 1538 1538 1539 1539 1539 1540 1539 1540 1539 1539 1540
1503 1503 1503 1504 1506 1507 1507 1508 1508 1509 1509 1509 1508 1507 1507 1510 1513 1514 1516 1518 1520 1522 1525 1527 1528 1530 1531 1533 1534 1535 1536 1536 1537 1537 1538 1538 1539 1539 1539 1539 1539 1539 1539 1539
1501 1502 1503 1505 1506 1506 1506 1507 1507 1509 1510 1508 1509 1507 1505 1506 1510 1513 1514 1515 1518 1520 1522 1525 1526 1528 1530 1531 1532 1534 1535 1535 1536 1536 1537 1538 1538 1538 1539 1539 1539 1539 1539 1539
1499 1501 1503 1504 1504 1503 1506 1504 1506 1508 1509 1507 1508 1509 1500 1501 1506 1509 1511 1513 1515 1518 1520 1522 1524 1526 1528 1529 1531 1532 1533 1534 1535 1535 1536 1537 1537 1538 1538 1538 1538 1538 1538 1538
1498 1500 1502 1503 1502 1503 1503 1505 1506 1507 1507 1507 1505 1506 1499 1499 1502 1505 1507 1510 1512 1515 1518 1520 1522 1524 1526 1528 1529 1531 1532 1533 1534 1534 1535 1536 1536 1537 1537 1537 1537 1537 1537 1537
1497 1500 1500 1500 1502 1503 1504 1505 1506 1505 1505 1510 1503 1505 1501 1496 1498 1501 1504 1507 1510 1512 1515 1518 1520 1522 1524 1526 1527 1529 1530 1531 1532 1533 1534 1534 1535 1535 1536 1536 1536 1536 1536 1536
1498 1497 1499 1500 1501 1503 1502 1504 1510 1510 1510 1506 1501 1504 1500 1495 1498 1500 1502 1505 1508 1510 1513 1515 1517 1520 1521 1523 1525 1526 1528 1529 1530 1531 1532 1533 1534 1534 1535 1535 1535 1535 1535 1535
1499 1499 1496 1497 1497 1498 1499 1499 1508 1513 1509 1503 1501 1502 1496 1497 1500 1501 1502 1504 1506 1508 1511 1513 1515 1517 1519 1521 1522 1524 1526 1527 1528 1529 1530 1531 1532 1533 1533 1534 1534 1534 1534 1533
1495 1496 1495 1496 1497 1496 1498 1498 1496 1501 1502 1505 1497 1494 1494 1496 1498 1500 1501 1503 1504 1507 1509 1511 1513 1515 1517 1518 1520 1522 1523 1525 1526 1527 1528 1529 1530 1531 1531 1532 1532 1532 1532 1531
1492 1496 1494 1496 1497 1498 1496 1495 1499 1502 1508 1507 1500 1495 1494 1495 1496 1498 1500 1501 1504 1506 1508 1510 1511 1513 1515 1516 1518 1520 1521 1522 1524 1525 1526 1526 1527 1528 1529 1529 1530 1530 1530 1529
1493 1494 1495 1495 1494 1494 1497 1498 1496 1496 1497 1503 1504 1497 1490 1492 1495 1497 1499 1501 1503 1505 1506 1508 1510 1512 1513 1514 1516 1517 1519 1520 1522 1522 1523 1524 1525 1526 1526 1527 1527 1527 1527 1527
1493 1492 1492 1492 1493 1494 1492 1492 1493 1499 1497 1496 1498 1497 1492 1494 1495 1497 1499 1500 1502 1504 1506 1507 1509 1511 1512 1513 1514 1516 1517 1518 1519 1520 1521 1521 1522 1523 1523 1524 1524 1524 1524 1524
1494 1492 1493 1494 1497 1495 1494 1494 1493 1493 1494 1495 1498 1495 1492 1494 1496 1498 1499 1500 1501 1503 1505 1506 1508 1509 1511 1512 1513 1514 1515 1516 1517 1517 1518 1519 1519 1520 1520 1520 1520 1520 1521 1521
1495 1490 1492 1495 1490 1491 1493 1494 1495 1494 1493 1491 1491 1490 1491 1493 1495 1497 1499 1500 1501 1502 1503 1505 1506 1508 1509 1510 1511 1512 1512 1513 1514 1515 1515 1516 1516 1516 1516 1517 1517 1517 1517 1518
1493 1490 1489 1489 1490 1491 1492 1492 1493 1493 1490 1490 1488 1489 1490 1492 1495 1496 1498 1499 1500 1500 1502 1503 1504 1505 1507 1508 1509 1509 1510 1511 1511 1512 1512 1512 1513 1513 1513 1513 1513 1514 1514 1514
1492 1490 1490 1491 1491 1491 1491 1491 1491 1492 1491 1489 1490 1491 1491 1494 1495 1496 1497 1498 1498 1499 1500 1501 1502 1503 1504 1505 1506 1506 1507 1508 1508 1509 1509 1509 1510 1510 1510 1510 1510 1510 1511 1511
1491 1490 1491 1488 1490 1490 1489 1488 1488 1489 1490 1489 1489 1490 1492 1493 1494 1495 1496 1496 1497 1497 1498 1498 1499 1500 1501 1502 1503 1503 1504 1505 1505 1506 1506 1506 1506 1506 1507 1507 1507 1507 1508 1508
1490 1490 1489 1489 1491 1494 1487 1486 1486 1488 1490 1490 1490 1491 1492 1492 1493 1494 1495 1495 1495 1496 1496 1496 1496 1497 1498 1499 1500 1501 1501 1502 1502 1502 1503 1503 1503 1503 1504 1504 1504 1504 1505 1505
1491 1490 1489 1490 1489 1486 1486 1487 1488 1488 1488 1490 1490 1491 1492 1492 1492 1492 1493 1494 1494 1494 1494 1493 1494 1494 1495 1495 1496 1497 1498 1499 1499 1499 1499 1500 1500 1500 1500 1500 1500 1501 1501 1502
1492 1490 1488 1489 1491 1489 1485 1487 1488 1489 1487 1489 1490 1490 1490 1490 1488 1489 1491 1491 1491 1491 1491 1491 1491 1491 1492 1493 1493 1494 1495 1496 1496 1496 1496 1497 1497 1497 1497 1497 1497 1498 1498 1499
1490 1490 1488 1487 1487 1482 1486 1488 1489 1490 1487 1489 1489 1490 1490 1489 1489 1490 1489 1490 1489 1489 1489 1489 1489 1489 1489 1490 1491 1491 1492 1493 1493 1493 1493 1494 1494 1494 1495 1495 1495 1495 1495 1496
1486 1486 1486 1486 1487 1487 1488 1488 1488 1488 1488 1488 1488 1489 1489 1489 1488 1488 1488 1488 1487 1487 1487 1487 1487 1487 1487 1488 1488 1489 1489 1490 1490 1490 1491 1491 1491 1492 1492 1492 1492 1492 1493 1493
1485 1485 1483 1484 1486 1487 1488 1488 1489 1489 1488 1488 1488 1488 1488 1487 1487 1486 1486 1486 1486 1486 1485 1485 1485 1485 1485 1486 1486 1486 1487 1487 1487 1488 1488 1488 1488 1489 1489 1489 1489 1490 1490 1490
1485 1488 1486 1485 1484 1487 1487 1487 1487 1487 1487 1487 1487 1486 1486 1485 1485 1485 1484 1484 1484 1484 1483 1483 1483 1483 1483 1484 1484 1484 1484 1485 1485 1485 1485 1485 1485 1486 1486 1486 1487 1487 1487 1487
1483 1485 1483 1482 1484 1486 1485 1485 1486 1486 1485 1485 1485 1484 1484 1483 1483 1483 1482 1482 1482 1482 1482 1482 1482 1482 1482 1482 1482 1482 1482 1482 1483 1483 1483 1483 1483 1483 1483 1484 1484 1484 1484 1484
1482 1482 1481 1479 1481 1482 1482 1483 1483 1483 1483 1483 1482 1482 1482 1482 1481 1481 1480 1480 1480 1480 1480 1480 1480 1480 1480 1480 1480 1480 1481 1481 1481 1480 1480 1480 1480 1480 1481 1481 1481 1481 1481 1481